Wind_Speed
8 9 10 10 10 10 10 10 10 10 10 10 11 11 11 11 11 11 12 11 10 9 8 8 7 6 6 6 5 5 5 5 5 4 4 4 4 4 5 5 5 5 6
8 8 9 9 9 10 10 9 10 9 10 10 11 12 12 12 12 12 11 11 10 10 9 9 8 7 7 7 6 6 6 5 5 4 5 5 5 6 7 7 6 7 7
7 7 8 8 8 8 9 9 10 10 10 10 11 11 12 12 13 13 13 12 11 11 10 10 9 8 7 7 7 6 6 6 5 5 5 5 6 7 8 8 7 7 7
7 7 7 7 7 8 8 10 10 10 10 10 10 11 11 12 13 13 13 12 11 12 12 11 10 9 8 7 7 7 7 7 7 7 7 7 7 8 8 8 8 8 8
7 7 7 7 7 7 8 9 9 9 9 9 10 10 11 11 12 13 13 13 12 12 12 12 11 10 9 8 8 8 7 7 7 8 9 8 8 9 9 8 8 9 9
7 7 6 6 7 8 8 9 9 9 9 9 10 10 11 11 12 13 13 13 13 13 13 12 12 11 10 9 8 8 8 8 8 9 9 10 10 10 10 10 10 10 10
7 7 6 6 6 8 9 9 9 9 9 9 10 10 11 11 12 13 13 13 13 13 13 13 12 11 11 10 9 9 9 10 10 10 10 10 10 11 11 11 11 11 12
7 7 6 7 7 8 9 9 9 9 9 10 10 10 11 11 12 12 13 14 14 14 14 14 13 13 12 11 10 10 11 11 11 11 12 12 11 11 11 11 11 11 11
9 8 7 7 8 8 9 10 9 9 10 10 11 11 11 11 13 13 14 14 14 15 15 14 14 14 13 13 12 12 12 12 12 12 12 12 11 12 12 12 12 13 12
10 9 8 7 8 8 9 10 10 10 11 11 11 11 11 11 13 14 15 15 15 15 16 15 14 14 14 14 14 14 14 14 13 13 13 11 11 12 12 13 12 12 12
11 10 9 9 9 9 10 11 10 11 11 11 11 12 12 13 13 14 15 16 16 16 16 16 16 15 15 15 15 14 14 14 14 13 13 12 12 12 12 13 13 13 13
13 13 12 11 11 11 11 11 11 11 11 12 12 12 13 14 14 15 16 16 16 16 16 16 16 16 16 15 15 15 15 15 14 14 14 13 14 14 14 14 14 15 15
15 15 14 13 13 13 12 12 12 12 13 13 13 14 15 15 15 16 16 17 17 17 17 17 17 17 16 16 16 16 16 16 15 15 15 15 15 15 15 15 15 16 17
17 16 15 15 14 14 13 12 13 13 14 14 15 15 16 16 17 17 17 18 18 18 19 18 18 17 17 17 17 17 17 16 16 16 16 16 16 16 17 17 18 18 19
18 18 17 16 16 16 16 15 14 14 16 16 16 17 17 18 18 19 18 19 19 19 19 19 18 18 17 18 18 17 18 18 17 17 17 17 17 17 17 18 19 19 19
19 19 18 18 17 17 17 17 18 17 17 17 18 18 18 19 20 20 20 19 19 20 20 20 19 18 19 19 19 19 19 18 19 18 18 18 18 19 19 20 20 21 20
20 19 19 19 19 18 19 19 19 19 19 19 19 20 20 20 21 21 20 20 20 20 20 20 20 20 20 20 20 20 20 19 19 19 20 20 20 21 21 21 21 21 22
21 19 20 20 20 20 20 20 21 20 20 21 21 20 21 21 21 21 21 20 21 21 20 21 22 22 21 21 21 21 21 20 20 20 21 21 22 22 22 22 22 22 22
21 20 21 21 21 21 22 22 22 22 22 22 22 22 22 21 21 21 21 21 21 21 22 22 23 23 23 23 22 22 21 21 22 22 22 23 23 23 23 23 22 21 22
23 22 23 22 22 23 23 23 23 23 23 22 23 23 22 22 22 22 22 22 23 23 23 23 24 24 23 23 23 23 22 22 23 23 23 23 23 23 23 23 22 22 22
25 24 25 25 24 23 23 23 23 23 23 23 23 23 22 22 23 23 23 24 24 24 24 24 24 24 23 23 23 22 23 23 24 24 25 25 24 24 24 24 24 24 23
26 26 25 25 24 24 24 24 24 24 24 23 23 23 23 24 24 24 24 25 25 24 25 24 24 24 24 24 23 24 24 24 25 25 25 25 25 25 25 25 25 25 25
27 26 25 25 25 25 26 25 25 25 25 24 24 24 25 25 25 25 25 25 24 24 24 24 24 25 25 25 25 25 25 26 26 27 26 26 26 26 26 26 26 26 25
27 26 27 27 27 27 27 27 27 27 26 26 26 26 26 27 27 26 26 25 24 24 24 25 25 26 26 26 27 27 27 27 27 27 26 26 26 27 27 27 26 26 26
29 28 28 28 29 29 28 28 28 27 27 26 26 26 26 26 26 26 26 26 26 26 25 26 26 27 27 28 29 28 28 28 28 27 26 25 25 25 26 26 27 27 27
31 31 30 30 30 30 29 29 29 28 27 28 28 28 28 26 26 26 26 27 27 27 26 27 27 27 28 28 29 28 28 28 27 27 26 25 25 25 26 26 27 28 28
Wind_Direction
22 24 25 27 29 28 26 26 28 30 34 36 37 38 34 32 28 23 23 22 20 18 13 9 6 2 1 358 349 346 334 316 300 292 282 277 280 287 289 289 291 296 299
19 19 22 20 22 27 27 25 23 22 27 30 30 29 27 25 22 19 18 17 14 9 4 4 3 5 3 355 350 347 340 328 314 303 294 291 288 294 298 296 292 293 293
9 13 15 17 21 22 21 21 21 23 20 22 24 26 24 21 19 18 17 16 14 9 6 3 1 357 357 352 348 341 339 338 325 310 299 292 297 295 293 295 293 293 289
353 1 7 12 14 13 14 15 17 19 18 18 19 19 18 17 16 16 18 15 12 9 5 0 356 352 349 345 341 339 331 327 322 314 304 297 296 297 290 290 290 290 289
340 351 0 4 3 3 4 7 11 13 13 12 13 14 13 14 14 13 13 11 10 6 2 1 359 353 348 342 336 332 327 321 314 309 305 296 295 296 290 289 288 286 285
322 334 343 346 354 358 359 358 3 5 5 5 7 7 7 7 7 8 7 6 5 2 360 359 358 355 350 341 333 328 321 319 313 310 307 300 295 294 292 293 291 289 287
312 323 331 335 345 351 352 353 357 358 360 360 360 359 359 1 2 2 1 0 359 358 357 356 353 351 347 342 334 327 321 316 313 310 309 304 299 296 295 293 292 291 289
300 309 317 324 333 339 342 344 348 351 352 353 351 349 351 354 357 357 356 356 355 354 354 352 350 346 342 339 335 328 322 316 312 309 307 304 297 299 297 294 292 292 290
287 298 304 310 318 325 331 335 338 343 344 344 345 344 344 347 350 351 350 349 348 348 348 347 348 347 343 338 334 332 327 320 313 309 308 306 303 302 301 299 296 296 294
282 289 291 297 303 312 319 323 327 330 332 333 337 339 339 341 343 344 344 343 343 343 343 343 341 342 340 336 334 330 327 324 318 312 309 309 311 308 302 303 302 298 295
282 286 283 283 289 300 309 314 317 321 322 324 327 333 336 336 336 337 339 340 339 338 340 340 339 337 337 335 333 331 328 326 323 317 315 313 308 306 304 301 297 294 294
277 279 280 280 283 291 297 305 309 312 316 319 321 325 330 330 329 330 333 334 333 333 333 334 333 333 331 329 330 329 326 325 323 317 313 312 309 304 301 299 298 295 293
275 276 277 278 280 285 291 300 304 305 308 311 314 318 322 324 325 325 327 328 328 328 327 327 328 329 327 327 326 325 321 320 319 316 312 310 308 305 302 301 299 298 295
271 272 274 276 276 280 286 297 299 300 303 305 309 313 315 319 321 320 321 324 325 326 325 324 324 323 323 323 322 321 318 317 316 314 312 309 307 304 300 299 298 297 295
267 268 271 274 274 278 282 288 294 296 299 301 304 306 309 313 316 317 317 319 322 324 324 322 320 319 319 320 320 318 316 315 315 315 315 313 309 305 302 298 297 296 295
264 267 270 272 273 276 280 285 289 293 297 299 302 303 306 309 310 312 312 315 317 319 320 319 317 317 316 316 316 315 314 312 311 311 312 312 310 310 306 300 297 296 294
264 267 269 271 272 276 279 283 285 287 291 294 298 301 305 307 308 308 309 310 313 314 316 315 314 314 314 313 313 312 312 313 311 308 307 307 307 308 308 305 303 301 299
265 266 268 271 274 275 279 283 286 287 289 293 294 297 301 302 304 305 306 307 309 311 312 312 311 311 310 310 310 310 309 309 308 307 306 307 307 307 306 307 305 304 301
263 264 267 271 275 276 279 281 281 284 288 291 291 295 299 299 301 302 303 305 307 308 309 310 310 309 308 308 308 308 308 308 308 307 306 306 307 308 308 306 304 304 303
263 263 267 271 274 276 277 279 279 281 286 289 292 294 295 297 298 300 301 302 304 305 306 308 309 308 307 307 306 306 305 306 306 306 306 306 305 307 308 306 304 303 302
262 263 266 270 273 274 277 278 279 279 282 286 290 292 293 297 298 298 299 301 302 302 304 305 306 306 306 306 306 305 305 306 306 306 306 305 304 305 305 304 302 301 299
263 263 265 269 272 274 276 279 279 281 284 287 288 289 291 295 297 298 298 299 301 301 302 303 304 304 305 306 306 306 307 307 306 306 306 305 305 304 304 303 301 300 299
260 261 265 268 271 274 276 279 280 282 284 286 287 288 290 292 294 297 299 299 299 300 300 301 302 303 304 304 305 305 306 307 306 305 305 303 303 303 303 302 302 300 300
258 260 264 267 271 273 275 277 280 282 281 283 285 287 288 291 293 294 295 297 300 300 300 300 301 302 303 304 305 305 304 303 304 303 303 304 303 301 301 300 300 300 300
255 259 263 267 270 272 273 275 277 279 281 282 284 285 287 289 291 293 294 297 300 301 298 299 301 302 303 304 305 304 303 304 304 305 304 304 304 303 301 300 300 300 300
256 260 262 266 269 272 272 274 274 275 278 281 282 283 285 287 289 291 293 296 297 299 300 299 300 301 302 303 303 303 303 303 304 306 306 304 304 305 304 303 301 301 300
Height
5915 5914 5913 5912 5911 5909 5908 5907 5906 5905 5904 5903 5902 5901 5900 5899 5897 5896 5894 5893 5892 5891 5890 5889 5888 5887 5887 5886 5885 5885 5884 5884 5884 5884 5884 5884 5884 5884 5884 5883 5884 5883 5883
5916 5915 5913 5913 5912 5911 5910 5909 5907 5906 5906 5905 5904 5903 5901 5900 5899 5897 5896 5894 5892 5891 5890 5889 5888 5887 5886 5886 5885 5884 5884 5883 5883 5883 5883 5883 5883 5882 5882 5882 5882 5882 5881
5917 5916 5915 5914 5913 5912 5910 5909 5908 5908 5907 5906 5905 5904 5902 5901 5900 5898 5896 5895 5893 5892 5890 5889 5888 5887 5886 5885 5884 5884 5883 5883 5882 5882 5882 5882 5882 5881 5880 5880 5879 5879 5879
5918 5916 5915 5915 5914 5913 5912 5910 5910 5909 5908 5907 5906 5905 5903 5902 5901 5899 5897 5895 5894 5892 5891 5889 5888 5887 5886 5885 5884 5883 5883 5882 5881 5881 5880 5880 5879 5879 5878 5878 5877 5877 5876
5918 5917 5916 5915 5914 5913 5912 5912 5911 5910 5909 5908 5906 5905 5904 5903 5901 5900 5898 5896 5894 5892 5891 5889 5888 5886 5885 5884 5883 5883 5882 5881 5880 5879 5879 5878 5878 5877 5877 5876 5875 5874 5874
5918 5917 5916 5915 5914 5914 5913 5912 5911 5910 5909 5908 5907 5906 5905 5903 5902 5900 5899 5897 5895 5893 5891 5889 5888 5886 5885 5883 5882 5881 5880 5879 5878 5878 5877 5876 5876 5875 5875 5874 5873 5872 5871
5917 5917 5916 5915 5915 5914 5913 5912 5912 5911 5910 5909 5907 5906 5905 5904 5902 5901 5899 5897 5895 5894 5892 5889 5887 5886 5884 5882 5881 5880 5879 5878 5877 5876 5875 5874 5874 5873 5872 5871 5870 5869 5868
5916 5916 5916 5915 5914 5914 5913 5912 5912 5911 5910 5909 5907 5906 5905 5904 5902 5901 5899 5897 5895 5893 5891 5889 5887 5885 5883 5881 5880 5879 5877 5876 5875 5874 5873 5872 5871 5870 5869 5868 5868 5867 5866
5915 5915 5915 5914 5914 5913 5913 5912 5911 5911 5910 5909 5907 5906 5904 5903 5902 5900 5898 5897 5895 5893 5891 5889 5886 5884 5882 5880 5879 5877 5876 5874 5873 5872 5871 5870 5868 5868 5867 5866 5865 5864 5863
5914 5914 5913 5913 5913 5912 5912 5911 5910 5910 5909 5908 5907 5905 5904 5902 5901 5899 5898 5896 5894 5892 5890 5888 5886 5884 5882 5879 5878 5876 5874 5873 5871 5870 5868 5867 5866 5865 5864 5863 5862 5861 5861
5912 5911 5911 5911 5910 5910 5910 5910 5909 5908 5907 5906 5905 5904 5903 5901 5900 5898 5897 5895 5893 5891 5889 5886 5884 5882 5880 5878 5876 5874 5872 5871 5869 5867 5866 5865 5864 5862 5861 5860 5859 5858 5857
5909 5909 5909 5909 5908 5908 5908 5907 5907 5906 5905 5904 5903 5902 5901 5900 5898 5897 5895 5893 5891 5889 5887 5885 5883 5880 5878 5876 5874 5872 5870 5868 5866 5865 5863 5862 5861 5859 5858 5857 5856 5855 5854
5906 5906 5906 5906 5906 5906 5905 5905 5904 5904 5903 5902 5901 5900 5899 5898 5896 5894 5893 5891 5889 5887 5885 5883 5881 5878 5876 5874 5872 5870 5868 5866 5864 5862 5860 5859 5857 5856 5855 5853 5852 5851 5850
5902 5903 5903 5903 5903 5903 5903 5901 5902 5901 5901 5900 5899 5898 5896 5895 5893 5892 5890 5888 5887 5885 5882 5880 5878 5876 5874 5872 5870 5867 5865 5863 5861 5859 5857 5856 5854 5852 5851 5850 5848 5847 5845
5898 5899 5899 5900 5900 5900 5900 5899 5898 5898 5897 5897 5896 5895 5893 5892 5890 5889 5887 5886 5884 5882 5879 5877 5875 5873 5871 5869 5867 5864 5862 5860 5858 5856 5854 5852 5850 5848 5847 5845 5844 5842 5840
5894 5895 5896 5896 5896 5896 5896 5896 5895 5895 5894 5894 5893 5891 5890 5888 5887 5885 5884 5882 5880 5878 5876 5874 5872 5870 5867 5865 5863 5861 5859 5856 5854 5852 5850 5848 5846 5844 5842 5840 5839 5837 5835
5890 5891 5892 5892 5892 5892 5892 5892 5892 5891 5891 5890 5889 5888 5886 5884 5883 5881 5880 5878 5876 5875 5872 5870 5868 5866 5864 5861 5859 5857 5855 5853 5850 5848 5846 5844 5842 5840 5837 5835 5833 5832 5830
5886 5887 5887 5888 5888 5888 5888 5888 5887 5887 5886 5886 5885 5883 5882 5880 5879 5877 5876 5874 5872 5870 5868 5866 5864 5862 5859 5857 5855 5853 5850 5848 5846 5844 5841 5839 5837 5834 5832 5830 5828 5826 5824
5881 5882 5883 5883 5884 5884 5883 5883 5883 5882 5881 5880 5879 5877 5877 5875 5874 5872 5871 5869 5867 5865 5863 5861 5859 5857 5855 5852 5850 5848 5846 5843 5841 5839 5836 5834 5832 5829 5827 5825 5822 5820 5818
5876 5877 5878 5878 5878 5878 5878 5878 5878 5877 5876 5875 5874 5872 5872 5870 5869 5867 5866 5864 5862 5860 5858 5856 5854 5852 5850 5847 5845 5843 5840 5838 5836 5834 5831 5829 5826 5824 5821 5819 5817 5814 5812
5870 5871 5872 5872 5873 5873 5873 5872 5872 5871 5871 5870 5869 5867 5866 5865 5863 5862 5860 5858 5857 5855 5853 5851 5849 5846 5844 5842 5839 5837 5835 5832 5830 5828 5825 5822 5820 5817 5815 5812 5810 5808 5806
5863 5864 5865 5866 5866 5866 5867 5866 5866 5865 5864 5864 5863 5862 5860 5859 5858 5856 5854 5852 5851 5849 5847 5845 5843 5841 5838 5836 5833 5831 5829 5826 5824 5821 5819 5816 5813 5811 5808 5806 5803 5801 5799
5857 5858 5859 5860 5860 5860 5861 5860 5860 5859 5859 5858 5857 5856 5854 5853 5852 5850 5848 5846 5844 5842 5840 5839 5837 5835 5833 5830 5828 5825 5823 5820 5818 5814 5812 5809 5806 5804 5801 5799 5796 5794 5792
5850 5851 5853 5853 5854 5854 5854 5854 5853 5853 5852 5852 5851 5850 5848 5847 5845 5844 5842 5840 5838 5836 5834 5832 5831 5829 5827 5824 5822 5819 5817 5814 5811 5808 5805 5802 5799 5796 5794 5792 5789 5787 5785
5843 5844 5845 5846 5847 5847 5847 5847 5847 5846 5846 5845 5844 5843 5842 5840 5839 5837 5835 5834 5832 5830 5828 5826 5824 5822 5820 5818 5815 5812 5810 5807 5804 5801 5798 5795 5792 5789 5787 5784 5782 5780 5778
5836 5837 5837 5838 5839 5839 5839 5839 5839 5839 5839 5838 5837 5836 5835 5833 5832 5830 5829 5827 5826 5824 5821 5820 5818 5815 5813 5811 5808 5805 5802 5800 5797 5794 5792 5789 5786 5783 5780 5778 5775 5773 5770